Greenwood, Nova Scotia

4:21 AM ADT on July 26, 2017 (GMT -0300)
Greenwood

Weather History for CYZX - January, 2013

Change the Weather History Date:

Saturday, January 5, 2013

  Actual Average Record
Temperature  
Mean Temperature 24 °F -  
Max Temperature 34 °F 30 °F 64 °F (2000)
Min Temperature 15 °F 13 °F 5 °F (2002)
Degree Days  
Heating Degree Days 40    
Moisture  
Dew Point 19 °F    
Average Humidity 70    
Maximum Humidity 93    
Minimum Humidity 40    
Precipitation  
Precipitation 0.03 in 0.13 in - ()
Sea Level Pressure  
Sea Level Pressure 29.85 in    
Wind  
Wind Speed 14 mph ()    
Max Wind Speed 26 mph    
Max Gust Speed 36 mph    
Visibility 11.1 miles    
Events Snow    
Averages and records for this station are not official NWS values.
T = Trace of Precipitation, MM = Missing Value Source: Averaged Metar Reports

Daily Weather History Graph

Daily Weather History Graph

Search for Another Location

Airport or City:

Trip Planner

Search our weather history database for the weather conditions in past years. The results will help you decide how hot, cold, wet, or windy it might be!

Date:

Astronomy

Jan. 05, 2013 Rise Set
Actual Time 7:57 AM AST 4:53 PM AST
Civil Twilight 7:24 AM AST 5:26 PM AST
Nautical Twilight 6:47 AM AST 6:03 PM AST
Astronomical Twilight 6:11 AM AST 6:38 PM AST
Moon 12:50 AM AST (1/5) 11:48 AM AST (1/5)
Length of Visible Light 10h 02m
Length of Day
8h 55m
Last Quarter, 44% of the Moon is Illuminated
Jan 5
Last Quarter
Jan 11
New
Jan 18
First Quarter
Jan 27
Full
Feb 3
Last Quarter

Hourly Weather History & Observations

Time (AST) Temp. Windchill Dew Point Humidity Pressure Visibility Wind Dir Wind Speed Gust Speed Precip Events Conditions
12:00 AM 32.0 °F 20.5 °F 26.6 °F 80% 29.63 in 6.0 mi West 18.4 mph 28.8 mph N/A Snow Light Snow Showers
12:09 AM - - - N/A% - 8.0 mi West 16.1 mph 25.3 mph N/A   Unknown
1:00 AM 32.0 °F 22.1 °F 23.0 °F 69% 29.63 in 12.0 mi West 13.8 mph 20.7 mph N/A Snow Low Drifting Snow
2:00 AM 32 °F - 26 °F 68% 29.64 in 12 mi West 12.7 mph - - Snow Light Snow Showers
2:00 AM 32.0 °F 23.0 °F 24.8 °F 75% 29.63 in 12.0 mi West 11.5 mph 17.3 mph N/A   Overcast
3:00 AM 33.8 °F 25.8 °F 21.2 °F 60% 29.64 in 12.0 mi West 10.4 mph - N/A   Overcast
4:00 AM 33.8 °F 25.3 °F 23.0 °F 65% 29.64 in 12.0 mi West 11.5 mph 17.3 mph N/A   Overcast
5:00 AM 33.8 °F 24.3 °F 26.6 °F 75% 29.63 in 12.0 mi West 13.8 mph - N/A   Overcast
6:00 AM 32.0 °F 24.2 °F 26.6 °F 80% 29.64 in 12.0 mi West 9.2 mph - N/A   Overcast
6:37 AM - - - N/A% - 3.0 mi WSW 10.4 mph 17.3 mph N/A   Unknown
7:00 AM 33.8 °F 25.3 °F 26.6 °F 75% 29.64 in 3.0 mi West 11.5 mph 18.4 mph N/A Snow Light Snow Showers
7:29 AM - - - N/A% - 4.0 mi WSW 12.7 mph 25.3 mph N/A   Unknown
8:00 AM 33 °F - 30 °F 82% 29.66 in 6 mi WSW 15.0 mph - - Snow Light Snow Showers
8:00 AM 32.0 °F 20.5 °F 30.2 °F 93% 29.65 in 6.0 mi WSW 18.4 mph 24.2 mph N/A Snow Light Snow Showers
8:10 AM - - - N/A% - 12.0 mi West 19.6 mph 25.3 mph N/A   Unknown
8:24 AM - - - N/A% - 12.0 mi West 17.3 mph 32.2 mph N/A   Unknown
9:00 AM 33.8 °F 21.9 °F 28.4 °F 81% 29.66 in 12.0 mi West 21.9 mph 29.9 mph N/A Snow Light Snow Showers
9:16 AM - - - N/A% - 15.0 mi West 21.9 mph 29.9 mph N/A   Unknown
10:00 AM 33.8 °F 21.9 °F 28.4 °F 81% 29.69 in 15.0 mi West 21.9 mph 32.2 mph N/A Snow Low Drifting Snow
11:00 AM 28.4 °F 15.1 °F 23.0 °F 80% 29.75 in 15.0 mi West 20.7 mph 35.7 mph N/A Snow Low Drifting Snow
12:00 PM 28.4 °F 14.1 °F 19.4 °F 69% 29.81 in 15.0 mi WNW 24.2 mph 31.1 mph N/A Snow Low Drifting Snow
1:00 PM 28.4 °F 16.6 °F 21.2 °F 74% 29.83 in 10.0 mi WNW 16.1 mph 23.0 mph N/A Snow Low Drifting Snow
1:08 PM - - - N/A% - 2.0 mi WNW 17.3 mph 24.2 mph N/A   Unknown
1:13 PM - - - N/A% - 0.5 mi WNW 17.3 mph 24.2 mph N/A   Unknown
1:18 PM - - - N/A% - 0.2 mi WNW 16.1 mph 24.2 mph N/A   Unknown
1:30 PM - - - N/A% - 10.0 mi WNW 18.4 mph 29.9 mph N/A   Unknown
1:45 PM - - - N/A% - 15.0 mi WNW 17.3 mph 28.8 mph N/A   Unknown
2:00 PM 24 °F - 14 °F 52% 29.89 in 15 mi NW 19.6 mph - - Snow Light Snow Showers
2:00 PM 24.8 °F 8.7 °F 14.0 °F 64% 29.89 in 15.0 mi NW 26.5 mph 32.2 mph N/A Snow Light Snow Showers
3:00 PM 24.8 °F 10.3 °F 17.6 °F 74% 29.95 in 15.0 mi West 20.7 mph 31.1 mph N/A Snow Low Drifting Snow
4:00 PM 23.0 °F 9.2 °F 12.2 °F 63% 30.03 in 15.0 mi West 17.3 mph 24.2 mph N/A Snow Low Drifting Snow
5:00 PM 21.2 °F 6.8 °F 10.4 °F 63% 30.08 in 15.0 mi West 17.3 mph - N/A Snow Low Drifting Snow
6:00 PM 19.4 °F 3.6 °F 8.6 °F 63% 30.13 in 15.0 mi West 19.6 mph - N/A Snow Low Drifting Snow
7:00 PM 17.6 °F 3.2 °F 6.8 °F 63% 30.14 in 15.0 mi WNW 15.0 mph - N/A Snow Low Drifting Snow
8:00 PM 19 °F - 5 °F 40% 30.17 in 15 mi WNW 10.4 mph - -   Scattered Clouds
8:00 PM 19.4 °F 7.9 °F 5.0 °F 54% 30.17 in 15.0 mi WNW 10.4 mph - N/A Snow Low Drifting Snow
9:00 PM 15.8 °F 2.7 °F 6.8 °F 68% 30.19 in 15.0 mi West 11.5 mph 18.4 mph N/A Snow Low Drifting Snow
10:00 PM 15.8 °F 1.4 °F 8.6 °F 73% 30.20 in 15.0 mi NW 13.8 mph 19.6 mph N/A   Clear
11:00 PM 15.8 °F 4.2 °F 10.4 °F 79% 30.22 in 15.0 mi NW 9.2 mph - N/A   Clear